Radiation Dose at Monitoring Post of Fukushima Daini Nuclear Power Station
Date,Time,MP-1(microSv/h),MP-2(microSv/h),MP-3(microSv/h),MP-4(microSv/h),MP-5(microSv/h),MP-6(microSv/h),MP-7(microSv/h),Wind Direction,Wind Velocity(m/s),Rain
2018/04/01,00:00,0.325,0.208,0.335,0.322,0.305,0.167,0.101,southwest,4.6,No
2018/04/01,00:10,0.326,0.206,0.336,0.319,0.305,0.167,0.100,southwest,3.5,No
2018/04/01,00:20,0.326,0.207,0.336,0.320,0.305,0.168,0.100,southwest,2.5,No
2018/04/01,00:30,0.324,0.207,0.334,0.320,0.305,0.167,0.100,southwest,3.5,No
2018/04/01,00:40,0.326,0.207,0.338,0.321,0.307,0.167,0.100,south-southwest,5.7,No
2018/04/01,00:50,0.324,0.209,0.337,0.320,0.304,0.167,0.101,southwest,5.4,No
2018/04/01,01:00,0.327,0.208,0.335,0.320,0.306,0.167,0.100,southwest,6.5,No
2018/04/01,01:10,0.324,0.206,0.336,0.320,0.305,0.167,0.100,southwest,6.1,No
2018/04/01,01:20,0.324,0.209,0.337,0.322,0.304,0.167,0.101,south-southwest,5.0,No
2018/04/01,01:30,0.326,0.207,0.337,0.320,0.305,0.167,0.101,south-southwest,4.2,No
2018/04/01,01:40,0.323,0.208,0.336,0.321,0.304,0.167,0.100,south-southwest,4.4,No
2018/04/01,01:50,0.326,0.208,0.336,0.320,0.306,0.167,0.100,south-southwest,4.6,No
2018/04/01,02:00,0.326,0.207,0.337,0.320,0.304,0.168,0.100,southwest,5.0,No
2018/04/01,02:10,0.324,0.208,0.335,0.322,0.306,0.166,0.100,southwest,5.0,No
2018/04/01,02:20,0.326,0.208,0.336,0.320,0.305,0.168,0.100,southwest,5.9,No
2018/04/01,02:30,0.324,0.206,0.336,0.322,0.303,0.168,0.100,southwest,5.1,No
2018/04/01,02:40,0.326,0.209,0.335,0.322,0.307,0.167,0.100,southwest,5.7,No
2018/04/01,02:50,0.324,0.208,0.335,0.320,0.305,0.167,0.100,southwest,5.2,No
2018/04/01,03:00,0.325,0.207,0.334,0.322,0.304,0.167,0.100,southwest,4.4,No
2018/04/01,03:10,0.327,0.208,0.336,0.319,0.305,0.166,0.101,southwest,5.7,No
2018/04/01,03:20,0.324,0.207,0.335,0.321,0.303,0.167,0.100,south-southwest,5.1,No
2018/04/01,03:30,0.325,0.206,0.337,0.321,0.307,0.168,0.100,southwest,3.1,No
2018/04/01,03:40,0.324,0.207,0.336,0.320,0.305,0.166,0.101,southwest,2.0,No
2018/04/01,03:50,0.324,0.207,0.336,0.321,0.306,0.168,0.100,southwest,1.9,No
2018/04/01,04:00,0.324,0.208,0.337,0.320,0.303,0.166,0.100,west-southwest,1.7,No
2018/04/01,04:10,0.324,0.207,0.337,0.321,0.306,0.167,0.100,southwest,1.0,No
2018/04/01,04:20,0.327,0.207,0.334,0.322,0.306,0.168,0.100,south-southwest,2.2,No
2018/04/01,04:30,0.324,0.208,0.338,0.319,0.304,0.166,0.100,southwest,2.2,No
2018/04/01,04:40,0.325,0.207,0.335,0.321,0.307,0.168,0.100,southwest,3.6,No
2018/04/01,04:50,0.325,0.208,0.337,0.321,0.303,0.168,0.101,southwest,3.4,No
2018/04/01,05:00,0.324,0.208,0.335,0.319,0.307,0.166,0.100,southwest,2.0,No
2018/04/01,05:10,0.325,0.207,0.336,0.322,0.304,0.168,0.100,south-southwest,4.1,No
2018/04/01,05:20,0.324,0.208,0.336,0.320,0.308,0.167,0.100,south-southwest,5.5,No
2018/04/01,05:30,0.327,0.207,0.335,0.320,0.305,0.167,0.100,south-southwest,5.0,No
2018/04/01,05:40,0.325,0.207,0.337,0.320,0.303,0.167,0.100,southwest,2.7,No
2018/04/01,05:50,0.325,0.209,0.335,0.320,0.305,0.167,0.101,southwest,3.0,No
2018/04/01,06:00,0.324,0.207,0.337,0.321,0.302,0.167,0.100,southwest,3.8,No
2018/04/01,06:10,0.325,0.208,0.338,0.319,0.307,0.167,0.100,southwest,3.8,No
2018/04/01,06:20,0.325,0.207,0.335,0.321,0.305,0.168,0.100,west-southwest,3.9,No
2018/04/01,06:30,0.325,0.206,0.337,0.320,0.306,0.167,0.099,west-southwest,2.6,No
2018/04/01,06:40,0.325,0.208,0.336,0.322,0.306,0.167,0.100,west,1.4,No
2018/04/01,06:50,0.326,0.207,0.337,0.322,0.305,0.167,0.101,-,CALM,No
2018/04/01,07:00,0.326,0.207,0.336,0.320,0.305,0.166,0.100,-,CALM,No
2018/04/01,07:10,0.326,0.207,0.336,0.321,0.304,0.167,0.100,south,1.5,No
2018/04/01,07:20,0.324,0.207,0.338,0.320,0.307,0.167,0.100,south-southwest,2.2,No
2018/04/01,07:30,0.326,0.209,0.335,0.321,0.304,0.166,0.100,south-southwest,2.2,No
2018/04/01,07:40,0.324,0.207,0.336,0.321,0.307,0.166,0.100,west-southwest,1.0,No
2018/04/01,07:50,0.325,0.209,0.334,0.319,0.304,0.167,0.101,southwest,0.7,No
2018/04/01,08:00,0.325,0.208,0.336,0.321,0.307,0.167,0.101,southwest,1.1,No
2018/04/01,08:10,0.326,0.208,0.335,0.319,0.304,0.167,0.101,west-southwest,0.8,No
2018/04/01,08:20,0.327,0.209,0.336,0.320,0.307,0.168,0.101,south-southwest,0.9,No
2018/04/01,08:30,0.325,0.208,0.337,0.318,0.304,0.168,0.101,southwest,0.7,No
2018/04/01,08:40,0.326,0.209,0.335,0.323,0.307,0.167,0.102,-,CALM,No
2018/04/01,08:50,0.325,0.207,0.337,0.320,0.304,0.168,0.101,south-southwest,1.0,No
2018/04/01,09:00,0.326,0.207,0.335,0.322,0.306,0.166,0.101,south-southwest,1.4,No
2018/04/01,09:10,0.324,0.208,0.338,0.319,0.305,0.167,0.101,south,1.4,No
2018/04/01,09:20,0.325,0.208,0.335,0.319,0.303,0.167,0.100,south,1.8,No
2018/04/01,09:30,0.323,0.206,0.338,0.322,0.305,0.166,0.101,south,3.0,No
2018/04/01,09:40,0.326,0.207,0.333,0.317,0.303,0.167,0.100,south,4.6,No
2018/04/01,09:50,0.324,0.207,0.337,0.322,0.305,0.167,0.101,south,5.4,No
2018/04/01,10:00,0.327,0.208,0.335,0.321,0.304,0.168,0.100,south,6.0,No
2018/04/01,10:10,0.325,0.207,0.337,0.322,0.305,0.166,0.102,south,7.7,No
2018/04/01,10:20,0.327,0.209,0.335,0.320,0.307,0.168,0.101,south,7.3,No
2018/04/01,10:30,0.323,0.207,0.338,0.321,0.304,0.167,0.102,south,7.5,No
2018/04/01,10:40,0.326,0.207,0.335,0.321,0.307,0.168,0.101,south,7.2,No
2018/04/01,10:50,0.324,0.207,0.338,0.323,0.302,0.166,0.101,south,10.1,No
2018/04/01,11:00,0.325,0.208,0.334,0.320,0.307,0.167,0.101,south,10.7,No
2018/04/01,11:10,0.324,0.208,0.337,0.321,0.304,0.166,0.100,south,9.5,No
2018/04/01,11:20,0.326,0.209,0.336,0.322,0.305,0.166,0.101,south,10.6,No
2018/04/01,11:30,0.326,0.206,0.334,0.318,0.305,0.167,0.101,south,8.9,No
2018/04/01,11:40,0.321,0.208,0.337,0.321,0.302,0.166,0.100,south,9.8,No
2018/04/01,11:50,0.326,0.207,0.335,0.320,0.305,0.167,0.101,south,10.1,No
2018/04/01,12:00,0.324,0.206,0.335,0.317,0.305,0.165,0.100,south,10.9,No
2018/04/01,12:10,0.321,0.209,0.338,0.321,0.303,0.167,0.101,south,10.6,No
2018/04/01,12:20,0.325,0.206,0.334,0.319,0.305,0.168,0.100,south,12.0,No
2018/04/01,12:30,0.325,0.208,0.332,0.317,0.305,0.166,0.099,south,9.5,No
2018/04/01,12:40,0.321,0.208,0.337,0.321,0.304,0.168,0.101,south,9.2,No
2018/04/01,12:50,0.323,0.206,0.337,0.320,0.301,0.167,0.100,south,10.3,No
2018/04/01,13:00,0.326,0.208,0.336,0.317,0.306,0.167,0.100,south,10.3,No
2018/04/01,13:10,0.324,0.207,0.334,0.322,0.306,0.167,0.101,south,12.3,No
2018/04/01,13:20,0.321,0.206,0.338,0.321,0.303,0.168,0.101,south,11.5,No
2018/04/01,13:30,0.325,0.209,0.338,0.317,0.303,0.167,0.101,south,12.8,No
2018/04/01,13:40,0.326,0.208,0.335,0.319,0.307,0.167,0.101,south,12.6,No
2018/04/01,13:50,0.323,0.206,0.334,0.322,0.304,0.167,0.100,south,11.7,No
2018/04/01,14:00,0.325,0.209,0.338,0.319,0.303,0.167,0.100,south,12.5,No
2018/04/01,14:10,0.325,0.208,0.337,0.321,0.306,0.168,0.100,south,12.8,No
2018/04/01,14:20,0.324,0.207,0.338,0.319,0.303,0.166,0.101,south,12.0,No
2018/04/01,14:30,0.328,0.208,0.338,0.320,0.305,0.168,0.101,south,12.6,No
2018/04/01,14:40,0.324,0.206,0.334,0.323,0.305,0.168,0.101,south,12.8,No
2018/04/01,14:50,0.322,0.209,0.335,0.320,0.303,0.166,0.100,south,12.8,No
2018/04/01,15:00,0.327,0.207,0.337,0.322,0.304,0.167,0.101,south,12.8,No
2018/04/01,15:10,0.326,0.208,0.335,0.321,0.306,0.166,0.101,south,12.2,No
2018/04/01,15:20,0.323,0.208,0.338,0.321,0.304,0.167,0.100,south,12.6,No
2018/04/01,15:30,0.326,0.209,0.336,0.321,0.305,0.168,0.100,south,10.9,No
2018/04/01,15:40,0.323,0.207,0.338,0.321,0.305,0.166,0.100,south,11.4,No
2018/04/01,15:50,0.325,0.208,0.336,0.321,0.303,0.167,0.101,south,8.8,No
2018/04/01,16:00,0.326,0.207,0.339,0.324,0.306,0.167,0.101,south,8.1,No
2018/04/01,16:10,0.324,0.208,0.338,0.321,0.305,0.166,0.100,south,8.9,No
2018/04/01,16:20,0.325,0.207,0.337,0.321,0.305,0.167,0.101,south,10.3,No
2018/04/01,16:30,0.322,0.208,0.337,0.321,0.306,0.167,0.100,south,9.6,No
2018/04/01,16:40,0.326,0.207,0.337,0.321,0.305,0.168,0.100,south-southwest,7.0,No
2018/04/01,16:50,0.325,0.208,0.337,0.321,0.307,0.166,0.100,south-southwest,6.4,No
2018/04/01,17:00,0.327,0.208,0.337,0.321,0.304,0.167,0.100,south-southwest,6.0,No
2018/04/01,17:10,0.324,0.209,0.336,0.322,0.307,0.166,0.100,southwest,3.2,No
2018/04/01,17:20,0.327,0.208,0.335,0.320,0.306,0.167,0.101,south-southwest,3.4,No
2018/04/01,17:30,0.324,0.209,0.337,0.322,0.306,0.167,0.100,west-southwest,2.8,No
2018/04/01,17:40,0.326,0.210,0.337,0.323,0.305,0.167,0.101,southwest,4.2,No
2018/04/01,17:50,0.324,0.208,0.338,0.321,0.306,0.167,0.101,west,2.3,No
2018/04/01,18:00,0.327,0.210,0.337,0.320,0.306,0.166,0.101,west-southwest,1.5,No
2018/04/01,18:10,0.324,0.208,0.336,0.320,0.306,0.167,0.101,southwest,1.2,No
2018/04/01,18:20,0.326,0.209,0.337,0.323,0.306,0.167,0.102,-,CALM,No
2018/04/01,18:30,0.325,0.208,0.337,0.320,0.306,0.166,0.101,west-northwest,0.7,No
2018/04/01,18:40,0.325,0.207,0.338,0.324,0.305,0.167,0.101,north-northwest,1.0,No
2018/04/01,18:50,0.325,0.209,0.336,0.320,0.307,0.167,0.101,north,1.9,No
2018/04/01,19:00,0.327,0.207,0.339,0.322,0.306,0.167,0.101,north,1.1,No
2018/04/01,19:10,0.326,0.210,0.336,0.321,0.306,0.167,0.101,-,CALM,No
2018/04/01,19:20,0.326,0.208,0.338,0.323,0.305,0.166,0.100,south-southeast,1.3,No
2018/04/01,19:30,0.326,0.207,0.337,0.323,0.307,0.167,0.101,south,2.3,No
2018/04/01,19:40,0.325,0.209,0.336,0.322,0.305,0.167,0.101,south,3.1,No
2018/04/01,19:50,0.325,0.208,0.337,0.322,0.305,0.167,0.101,-,CALM,No
2018/04/01,20:00,0.326,0.209,0.336,0.320,0.307,0.167,0.101,north-northeast,1.6,No
2018/04/01,20:10,0.324,0.207,0.337,0.323,0.305,0.167,0.101,north-northwest,0.6,No
2018/04/01,20:20,0.327,0.207,0.337,0.321,0.308,0.167,0.101,-,CALM,No
2018/04/01,20:30,0.324,0.209,0.338,0.321,0.304,0.167,0.101,north,1.4,No
2018/04/01,20:40,0.327,0.208,0.339,0.322,0.308,0.168,0.101,north,1.5,No
2018/04/01,20:50,0.326,0.208,0.337,0.320,0.306,0.168,0.101,north-northwest,1.4,No
2018/04/01,21:00,0.327,0.209,0.337,0.323,0.306,0.168,0.101,north-northwest,0.8,No
2018/04/01,21:10,0.327,0.208,0.337,0.322,0.308,0.168,0.101,west,0.9,No
2018/04/01,21:20,0.326,0.209,0.337,0.321,0.305,0.168,0.100,southwest,2.7,No
2018/04/01,21:30,0.326,0.209,0.339,0.321,0.308,0.166,0.102,south-southwest,3.7,No
2018/04/01,21:40,0.326,0.209,0.337,0.321,0.306,0.167,0.101,south-southwest,4.2,No
2018/04/01,21:50,0.326,0.208,0.338,0.323,0.307,0.168,0.102,south-southwest,5.6,No
2018/04/01,22:00,0.327,0.208,0.339,0.321,0.307,0.168,0.100,southwest,5.0,No
2018/04/01,22:10,0.325,0.208,0.337,0.320,0.304,0.168,0.101,southwest,4.7,No
2018/04/01,22:20,0.327,0.210,0.339,0.324,0.307,0.169,0.101,southwest,5.5,No
2018/04/01,22:30,0.326,0.209,0.338,0.322,0.306,0.169,0.102,southwest,6.1,No
2018/04/01,22:40,0.325,0.208,0.337,0.322,0.308,0.167,0.102,southwest,6.5,No
2018/04/01,22:50,0.328,0.210,0.340,0.323,0.306,0.168,0.102,southwest,7.1,No
2018/04/01,23:00,0.325,0.209,0.338,0.321,0.305,0.169,0.102,west-southwest,6.2,No
2018/04/01,23:10,0.325,0.209,0.338,0.322,0.307,0.169,0.101,northeast,1.3,No
2018/04/01,23:20,0.328,0.209,0.337,0.323,0.306,0.167,0.102,north,1.4,No
2018/04/01,23:30,0.326,0.208,0.336,0.322,0.308,0.168,0.102,west,4.6,No
2018/04/01,23:40,0.327,0.208,0.338,0.323,0.305,0.168,0.100,west,6.2,No
2018/04/01,23:50,0.326,0.209,0.337,0.323,0.306,0.169,0.101,west,6.2,No
